When you browse on this site, cookies collect data to enhance your experience and personalize the content and advertising you see.
Visit our Privacy Policy to learn more. By continuing to use the site, you agree to this use of cookies and data.
  • In France
  • List of Countries
  • For 7 days
  • Water Temperature
  • Satellite Maps
  • Weather Map
  • Weather Widgets
  • user-avatar
    Login

    Hourly Weather Tibissa

    Today, 16 November, Friday

    Time Temperature Precipitation Wind Pressure Humidity
    00:00 +11°C° 0 mm 3 mps 684 mmHg 90%
    01:00 +11°C° 0 mm 3 mps 684 mmHg 93%
    02:00 +11°C° 0 mm 3 mps 684 mmHg 93%
    03:00 +11°C° 0 mm 3 mps 684 mmHg 93%
    04:00 +10°C° 0 mm 2 mps 684 mmHg 93%
    05:00 +10°C° 0 mm 2 mps 684 mmHg 93%
    06:00 +10°C° 0 mm 2 mps 684 mmHg 92%
    07:00 +10°C° 0 mm 2 mps 684 mmHg 91%
    08:00 +12°C° 0 mm 2 mps 684 mmHg 86%
    09:00 +13°C° 0 mm 2 mps 684 mmHg 80%
    10:00 +14°C° 0 mm 2 mps 684 mmHg 74%
    11:00 +14°C° 0 mm 3 mps 684 mmHg 67%
    12:00 +16°C° 0 mm 3 mps 685 mmHg 61%
    13:00 +17°C° 0 mm 4 mps 685 mmHg 54%
    14:00 +17°C° 0 mm 4 mps 684 mmHg 54%
    15:00 +17°C° 0 mm 4 mps 684 mmHg 54%
    16:00 +17°C° 0 mm 4 mps 684 mmHg 54%
    17:00 +16°C° 0 mm 3 mps 684 mmHg 58%
    18:00 +16°C° 0 mm 3 mps 684 mmHg 63%
    19:00 +14°C° 0 mm 3 mps 684 mmHg 68%
    20:00 +14°C° 0 mm 2 mps 684 mmHg 72%
    21:00 +14°C° 0 mm 2 mps 684 mmHg 77%
    22:00 +13°C° 0 mm 2 mps 684 mmHg 81%
    23:00 +13°C° 0 mm 2 mps 684 mmHg 85%

    Tomorrow, 17 November, Saturday

    Time Temperature Precipitation Wind Pressure Humidity
    00:00 +12°C° 0 mm 1 mps 684 mmHg 88%
    01:00 +12°C° 0 mm 1 mps 683 mmHg 92%
    02:00 +12°C° 0 mm 1 mps 683 mmHg 92%
    03:00 +11°C° 0 mm 1 mps 683 mmHg 93%
    04:00 +10°C° 0 mm 2 mps 682 mmHg 93%
    05:00 +11°C° 0 mm 1 mps 682 mmHg 93%
    06:00 +11°C° 0 mm 1 mps 682 mmHg 93%
    07:00 +11°C° 0 mm 1 mps 682 mmHg 94%
    08:00 +11°C° 0 mm 1 mps 682 mmHg 88%
    09:00 +12°C° 0 mm 1 mps 683 mmHg 82%
    10:00 +13°C° 0 mm 1 mps 683 mmHg 76%
    11:00 +14°C° 0.1 mm 1 mps 682 mmHg 71%
    12:00 +14°C° 0.1 mm 1 mps 682 mmHg 65%
    13:00 +15°C° 0.1 mm 1 mps 682 mmHg 60%
    14:00 +15°C° 0.3 mm 1 mps 681 mmHg 60%
    15:00 +15°C° 0.3 mm 1 mps 681 mmHg 61%
    16:00 +15°C° 0.3 mm 2 mps 681 mmHg 61%
    17:00 +14°C° 0.2 mm 2 mps 681 mmHg 65%
    18:00 +14°C° 0.2 mm 1 mps 681 mmHg 69%
    19:00 +13°C° 0.2 mm 1 mps 681 mmHg 73%
    20:00 +13°C° 0 mm 1 mps 681 mmHg 75%
    21:00 +12°C° 0 mm 1 mps 681 mmHg 77%
    22:00 +11°C° 0 mm 0 mps 681 mmHg 79%
    23:00 +11°C° 0 mm 0 mps 681 mmHg 80%

    Day after tomorrow, 18 November, Sunday

    Time Temperature Precipitation Wind Pressure Humidity
    00:00 +10°C° 0 mm 0 mps 680 mmHg 82%
    01:00 +10°C° 0 mm 0 mps 680 mmHg 83%
    02:00 +10°C° 0 mm 0 mps 680 mmHg 83%
    03:00 +9°C° 0 mm 0 mps 680 mmHg 84%
    04:00 +10°C° 0 mm 1 mps 680 mmHg 84%
    05:00 +9°C° 0 mm 0 mps 680 mmHg 85%
    06:00 +9°C° 0 mm 0 mps 680 mmHg 85%
    07:00 +8°C° 0 mm 0 mps 680 mmHg 86%
    08:00 +11°C° 0 mm 1 mps 681 mmHg 79%
    09:00 +12°C° 0 mm 2 mps 681 mmHg 72%
    10:00 +14°C° 0 mm 2 mps 682 mmHg 65%
    11:00 +14°C° 0 mm 3 mps 682 mmHg 60%
    12:00 +16°C° 0 mm 3 mps 682 mmHg 54%
    13:00 +17°C° 0 mm 4 mps 682 mmHg 49%
    14:00 +17°C° 0 mm 3 mps 681 mmHg 48%
    15:00 +17°C° 0 mm 3 mps 681 mmHg 47%
    16:00 +17°C° 0 mm 3 mps 681 mmHg 47%
    17:00 +16°C° 0 mm 3 mps 681 mmHg 52%
    18:00 +14°C° 0 mm 3 mps 681 mmHg 58%
    19:00 +13°C° 0 mm 3 mps 681 mmHg 64%
    20:00 +13°C° 0 mm 3 mps 681 mmHg 67%
    21:00 +12°C° 0 mm 3 mps 681 mmHg 71%
    22:00 +11°C° 0 mm 3 mps 681 mmHg 74%
    23:00 +11°C° 0 mm 3 mps 681 mmHg 76%

    19 November, Monday

    Time Temperature Precipitation Wind Pressure Humidity
    00:00 +11°C° 0 mm 3 mps 680 mmHg 77%
    01:00 +11°C° 0 mm 3 mps 680 mmHg 78%
    02:00 +11°C° 0 mm 3 mps 680 mmHg 77%
    03:00 +11°C° 0 mm 3 mps 679 mmHg 77%
    04:00 +12°C° 0 mm 2 mps 679 mmHg 77%
    05:00 +10°C° 0 mm 2 mps 679 mmHg 76%
    06:00 +10°C° 0 mm 2 mps 679 mmHg 76%
    07:00 +10°C° 0 mm 2 mps 679 mmHg 76%
    08:00 +12°C° 0 mm 2 mps 679 mmHg 67%
    09:00 +13°C° 0 mm 3 mps 679 mmHg 59%
    10:00 +14°C° 0 mm 3 mps 680 mmHg 51%
    11:00 +15°C° 0 mm 4 mps 679 mmHg 48%
    12:00 +16°C° 0 mm 5 mps 679 mmHg 44%
    13:00 +17°C° 0 mm 6 mps 679 mmHg 40%
    14:00 +16°C° 0 mm 6 mps 678 mmHg 41%
    15:00 +16°C° 0 mm 6 mps 678 mmHg 43%
    16:00 +16°C° 0 mm 7 mps 677 mmHg 44%
    17:00 +15°C° 0 mm 6 mps 677 mmHg 50%
    18:00 +14°C° 0 mm 5 mps 677 mmHg 55%
    19:00 +13°C° 0 mm 4 mps 676 mmHg 61%
    20:00 +13°C° 0.1 mm 4 mps 676 mmHg 63%
    21:00 +13°C° 0.1 mm 4 mps 676 mmHg 65%
    22:00 +13°C° 0.1 mm 4 mps 676 mmHg 67%
    23:00 +13°C° 0.1 mm 5 mps 676 mmHg 68%

    20 November, Tuesday

    Time Temperature Precipitation Wind Pressure Humidity
    00:00 +12°C° 0.1 mm 5 mps 675 mmHg 69%
    01:00 +11°C° 0.1 mm 6 mps 675 mmHg 69%
    02:00 +12°C° 0.1 mm 5 mps 674 mmHg 72%
    03:00 +10°C° 0.1 mm 5 mps 674 mmHg 75%
    04:00 +11°C° 0.1 mm 4 mps 674 mmHg 78%
    05:00 +10°C° 0 mm 4 mps 674 mmHg 78%
    06:00 +10°C° 0 mm 4 mps 674 mmHg 77%
    07:00 +10°C° 0 mm 4 mps 674 mmHg 77%
    08:00 +10°C° 0 mm 6 mps 674 mmHg 68%
    09:00 +11°C° 0 mm 7 mps 675 mmHg 58%
    10:00 +12°C° 0 mm 8 mps 676 mmHg 48%
    11:00 +13°C° 0 mm 9 mps 676 mmHg 46%
    12:00 +14°C° 0 mm 10 mps 676 mmHg 44%
    13:00 +14°C° 0 mm 11 mps 676 mmHg 42%
    14:00 +14°C° 0 mm 11 mps 676 mmHg 44%
    15:00 +13°C° 0 mm 11 mps 676 mmHg 47%
    16:00 +13°C° 0 mm 11 mps 676 mmHg 50%
    17:00 +12°C° 0 mm 9 mps 676 mmHg 54%
    18:00 +11°C° 0 mm 8 mps 677 mmHg 57%
    19:00 +10°C° 0 mm 6 mps 677 mmHg 61%
    20:00 +10°C° 0.3 mm 6 mps 678 mmHg 65%
    21:00 +10°C° 0.3 mm 6 mps 679 mmHg 69%
    22:00 +10°C° 0.3 mm 6 mps 679 mmHg 73%
    23:00 +9°C° 0.1 mm 6 mps 679 mmHg 74%

    21 November, Wednesday

    Time Temperature Precipitation Wind Pressure Humidity
    00:00 +9°C° 0.1 mm 6 mps 680 mmHg 75%
    01:00 +9°C° 0.1 mm 6 mps 680 mmHg 77%
    02:00 +8°C° 0 mm 5 mps 680 mmHg 79%
    03:00 +7°C° 0 mm 4 mps 680 mmHg 81%
    04:00 +8°C° 0 mm 3 mps 680 mmHg 83%
    05:00 +8°C° 0 mm 3 mps 680 mmHg 83%
    06:00 +7°C° 0 mm 2 mps 681 mmHg 83%
    07:00 +7°C° 0 mm 2 mps 681 mmHg 83%
    08:00 +9°C° 0 mm 3 mps 682 mmHg 73%
    09:00 +10°C° 0 mm 4 mps 682 mmHg 64%
    10:00 +12°C° 0 mm 5 mps 683 mmHg 54%
    11:00 +13°C° 0 mm 5 mps 683 mmHg 49%
    12:00 +14°C° 0 mm 6 mps 683 mmHg 45%
    13:00 +15°C° 0 mm 6 mps 683 mmHg 40%
    14:00 +15°C° 0 mm 6 mps 683 mmHg 40%
    15:00 +15°C° 0 mm 6 mps 683 mmHg 39%
    16:00 +15°C° 0 mm 5 mps 683 mmHg 39%
    17:00 +14°C° 0 mm 4 mps 683 mmHg 45%
    18:00 +12°C° 0 mm 3 mps 683 mmHg 51%
    19:00 +12°C° 0 mm 2 mps 683 mmHg 57%
    20:00 +12°C° 0 mm 2 mps 684 mmHg 59%
    21:00 +10°C° 0 mm 2 mps 684 mmHg 62%
    22:00 +11°C° 0 mm 1 mps 684 mmHg 64%
    23:00 +10°C° 0 mm 2 mps 684 mmHg 65%
    Show more